Schneifelwetter: Wetterstation Hallschlag, 537 m . NN
Wetterdaten: Samstag, 09.04.2011
Datum Zeit Temp. A. Feuchte A. Luftdruck Regen Wind Richtung Richtung Sonnenschein Helligkeit T Regen Taupunkt Windchill
09.04.2011 00:02 7,6 C 81 % 1023 hPa 0,0 l/m 14,3 km/h (3 Bft) N-NW45 340 0 min 0 lux 0,00 min 4,6 C 2,6 C
09.04.2011 00:17 7,4 C 82 % 1023 hPa 0,0 l/m 10,7 km/h (2 Bft) N-NO22.5 15 0 min 0 lux 0,00 min 4,5 C 4,3 C
09.04.2011 00:32 7,2 C 81 % 1023 hPa 0,0 l/m 10,8 km/h (2 Bft) N22.5 360 0 min 0 lux 0,00 min 4,2 C 4,0 C
09.04.2011 00:47 7,0 C 81 % 1023 hPa 0,0 l/m 13,7 km/h (3 Bft) N-NO22.5 15 0 min 0 lux 0,00 min 4,0 C 2,1 C
09.04.2011 01:02 6,8 C 81 % 1023 hPa 0,0 l/m 12,6 km/h (3 Bft) N22.5 10 0 min 0 lux 0,00 min 3,8 C 2,5 C
09.04.2011 01:17 6,5 C 81 % 1023 hPa 0,0 l/m 15,1 km/h (3 Bft) N45 360 0 min 0 lux 0,00 min 3,5 C 0,8 C
09.04.2011 01:32 6,3 C 81 % 1023 hPa 0,0 l/m 9,8 km/h (2 Bft) N-NW67.5 340 0 min 0 lux 0,00 min 3,3 C 3,6 C
09.04.2011 01:47 5,8 C 81 % 1023 hPa 0,0 l/m 6,6 km/h (2 Bft) N 5 0 min 0 lux 0,00 min 2,8 C 5,7 C
09.04.2011 02:02 5,3 C 83 % 1023 hPa 0,0 l/m 10,3 km/h (2 Bft) N45 10 0 min 0 lux 0,00 min 2,7 C 2,2 C
09.04.2011 02:17 5,2 C 83 % 1023 hPa 0,0 l/m 6,3 km/h (2 Bft) N-NO 25 0 min 0 lux 0,00 min 2,6 C 5,2 C
09.04.2011 02:32 5,2 C 83 % 1023 hPa 0,0 l/m 4,2 km/h (1 Bft) N-NW 340 0 min 0 lux 0,00 min 2,6 C 5,2 C
09.04.2011 02:47 4,8 C 83 % 1022 hPa 0,0 l/m 7,7 km/h (2 Bft) N-NW22.5 345 0 min 0 lux 0,00 min 2,2 C 3,6 C
09.04.2011 03:02 4,3 C 84 % 1022 hPa 0,0 l/m 3,3 km/h (1 Bft) N-NW 330 0 min 0 lux 0,00 min 1,8 C 4,3 C
09.04.2011 03:17 4,7 C 88 % 1022 hPa 0,0 l/m 8,7 km/h (2 Bft) N22.5 360 0 min 0 lux 0,00 min 2,9 C 2,7 C
09.04.2011 03:32 5,6 C 89 % 1022 hPa 0,0 l/m 10,1 km/h (2 Bft) N 5 0 min 0 lux 0,00 min 3,9 C 2,7 C
09.04.2011 03:47 6,0 C 87 % 1022 hPa 0,0 l/m 11,0 km/h (2 Bft) N22.5 5 0 min 0 lux 0,00 min 4,0 C 2,5 C
09.04.2011 04:02 5,8 C 87 % 1022 hPa 0,0 l/m 14,3 km/h (3 Bft) N-NO22.5 25 0 min 0 lux 0,00 min 3,8 C 0,4 C
09.04.2011 04:17 5,7 C 89 % 1022 hPa 0,0 l/m 16,0 km/h (3 Bft) N67.5 355 0 min 0 lux 0,00 min 4,0 C -0,6 C
09.04.2011 04:31 5,8 C 89 % 1022 hPa 0,0 l/m 16,0 km/h (3 Bft) N-NO22.5 15 0 min 0 lux 0,00 min 4,1 C -0,4 C
09.04.2011 04:46 5,4 C 88 % 1022 hPa 0,0 l/m 12,1 km/h (2 Bft) N-NO 15 0 min 0 lux 0,00 min 3,6 C 1,2 C
09.04.2011 05:01 4,9 C 88 % 1021 hPa 0,0 l/m 5,4 km/h (1 Bft) N-NO 15 0 min 0 lux 0,00 min 3,1 C 4,9 C
09.04.2011 05:16 3,9 C 87 % 1021 hPa 0,0 l/m 0,4 km/h (0 Bft) N 10 0 min 0 lux 0,00 min 1,9 C 3,9 C
09.04.2011 05:31 3,7 C 89 % 1021 hPa 0,0 l/m 5,1 km/h (1 Bft) N 10 0 min 0 lux 0,00 min 2,1 C 3,7 C
09.04.2011 05:46 3,6 C 90 % 1021 hPa 0,0 l/m 5,6 km/h (1 Bft) N 10 0 min 0 lux 0,00 min 2,1 C 3,6 C
09.04.2011 06:01 3,2 C 90 % 1021 hPa 0,0 l/m 0,4 km/h (0 Bft) N-NW 340 0 min 0 lux 0,00 min 1,7 C 3,2 C
09.04.2011 06:16 2,7 C 90 % 1021 hPa 0,0 l/m 0,3 km/h (0 Bft) N-NW 340 0 min 0 lux 0,00 min 1,2 C 2,7 C
09.04.2011 06:31 2,8 C 90 % 1021 hPa 0,0 l/m 4,6 km/h (1 Bft) N-NW 335 0 min 0 lux 0,00 min 1,3 C 2,8 C
09.04.2011 06:47 2,6 C 90 % 1022 hPa 0,0 l/m 3,6 km/h (1 Bft) N-NW 340 0 min 229 lux 0,00 min 1,1 C 2,6 C
09.04.2011 07:02 3,0 C 91 % 1022 hPa 0,0 l/m 14,8 km/h (3 Bft) N-NO45 20 0 min 702 lux 0,00 min 1,7 C -3,2 C
09.04.2011 07:17 2,8 C 91 % 1022 hPa 0,0 l/m 5,4 km/h (1 Bft) N-NO 25 0 min 2,11 klux 0,00 min 1,5 C 2,8 C
09.04.2011 07:32 2,7 C 92 % 1022 hPa 0,0 l/m 7,4 km/h (2 Bft) N-NO 25 0 min 8,20 klux 0,00 min 1,5 C 1,7 C
09.04.2011 07:47 2,8 C 92 % 1022 hPa 0,0 l/m 6,3 km/h (2 Bft) N-NO 25 0 min 9,4 klux 0,00 min 1,6 C 2,8 C
09.04.2011 08:02 3,1 C 93 % 1022 hPa 0,0 l/m 9,6 km/h (2 Bft) N-NO 20 0 min 9,5 klux 0,00 min 2,1 C 0,3 C
09.04.2011 08:17 3,7 C 93 % 1022 hPa 0,0 l/m 12,3 km/h (3 Bft) N-NO22.5 20 0 min 23,6 klux 0,00 min 2,7 C -0,9 C
09.04.2011 08:32 4,4 C 92 % 1022 hPa 0,0 l/m 12,8 km/h (3 Bft) N 10 0 min 21,2 klux 0,00 min 3,2 C -0,4 C
09.04.2011 08:47 4,7 C 91 % 1023 hPa 0,0 l/m 17,9 km/h (3 Bft) N-NO22.5 25 0 min 36,4 klux 0,00 min 3,4 C -2,7 C
09.04.2011 09:02 4,8 C 90 % 1023 hPa 0,0 l/m 15,8 km/h (3 Bft) N-NO22.5 20 0 min 36,9 klux 0,00 min 3,3 C -1,6 C
09.04.2011 09:17 5,4 C 87 % 1023 hPa 0,0 l/m 23,0 km/h (4 Bft) NO22.5 35 0 min 40,7 klux 0,00 min 3,4 C -3,7 C
09.04.2011 09:32 5,9 C 87 % 1023 hPa 0,0 l/m 22,1 km/h (4 Bft) N-NO67.5 25 0 min 44,6 klux 0,00 min 3,9 C -2,8 C
09.04.2011 09:47 6,7 C 85 % 1023 hPa 0,0 l/m 17,9 km/h (3 Bft) N-NO22.5 15 0 min 47,6 klux 0,00 min 4,4 C -0,2 C
09.04.2011 09:46 6,7 C 85 % 1023 hPa 0,0 l/m 17,9 km/h (3 Bft) N-NO22.5 15 0 min 47,6 klux 0,00 min 4,4 C -0,2 C
09.04.2011 10:02 7,1 C 82 % 1023 hPa 0,0 l/m 18,0 km/h (3 Bft) N-NO45 30 0 min 49,0 klux 0,00 min 4,2 C 0,3 C
09.04.2011 10:17 7,6 C 80 % 1023 hPa 0,0 l/m 17,4 km/h (3 Bft) N-NO45 25 0 min 51,3 klux 0,00 min 4,4 C 1,2 C
09.04.2011 10:32 8,0 C 78 % 1023 hPa 0,0 l/m 17,5 km/h (3 Bft) N-NO22.5 25 15 min 53,9 klux 0,00 min 4,4 C 1,6 C
09.04.2011 10:47 8,7 C 73 % 1023 hPa 0,0 l/m 15,6 km/h (3 Bft) N-NO22.5 25 15 min 58,2 klux 0,00 min 4,1 C 3,3 C
09.04.2011 11:02 9,6 C 67 % 1023 hPa 0,0 l/m 16,8 km/h (3 Bft) NO22.5 40 15 min 60,0 klux 0,00 min 3,8 C 3,9 C
09.04.2011 11:17 9,8 C 64 % 1023 hPa 0,0 l/m 15,3 km/h (3 Bft) N-NO22.5 20 15 min 63,5 klux 0,00 min 3,3 C 4,8 C
09.04.2011 11:31 10,1 C 59 % 1023 hPa 0,0 l/m 20,6 km/h (4 Bft) N-NO45 25 14 min 66,6 klux 0,00 min 2,5 C 3,2 C
09.04.2011 11:47 10,5 C 56 % 1023 hPa 0,0 l/m 17,3 km/h (3 Bft) N-NO67.5 30 16 min 69,0 klux 0,00 min 2,1 C 4,9 C
09.04.2011 12:02 10,8 C 48 % 1023 hPa 0,0 l/m 18,9 km/h (3 Bft) N-NO22.5 25 15 min 72,0 klux 0,00 min 0,2 C 4,7 C
09.04.2011 12:17 11,2 C 47 % 1023 hPa 0,0 l/m 22,6 km/h (4 Bft) NO45 40 15 min 71,3 klux 0,00 min 0,3 C 4,1 C
09.04.2011 12:32 11,6 C 37 % 1023 hPa 0,0 l/m 23,3 km/h (4 Bft) N-NO45 25 15 min 72,4 klux 0,00 min -2,6 C 4,4 C
09.04.2011 12:47 11,8 C 38 % 1023 hPa 0,0 l/m 29,8 km/h (5 Bft) NO22.5 35 15 min 72,8 klux 0,00 min -2,0 C 3,2 C
09.04.2011 13:02 11,7 C 34 % 1023 hPa 0,0 l/m 28,7 km/h (4 Bft) NO45 35 15 min 71,5 klux 0,00 min -3,6 C 3,3 C
09.04.2011 13:17 12,0 C 35 % 1023 hPa 0,0 l/m 27,8 km/h (4 Bft) N-NO67.5 25 15 min 76,2 klux 0,00 min -3,0 C 3,9 C
09.04.2011 13:32 12,2 C 35 % 1023 hPa 0,0 l/m 25,8 km/h (4 Bft) N67.5 360 15 min 76,2 klux 0,00 min -2,8 C 4,6 C
09.04.2011 13:47 12,4 C 33 % 1023 hPa 0,0 l/m 23,6 km/h (4 Bft) N-NO67.5 25 15 min 76,4 klux 0,00 min -3,4 C 5,4 C
09.04.2011 14:02 12,4 C 37 % 1023 hPa 0,0 l/m 23,3 km/h (4 Bft) N-NO22.5 15 15 min 74,9 klux 0,00 min -1,9 C 5,5 C
09.04.2011 14:17 12,6 C 38 % 1023 hPa 0,0 l/m 23,6 km/h (4 Bft) N-NO22.5 25 15 min 75,3 klux 0,00 min -1,3 C 5,7 C
09.04.2011 14:32 12,8 C 37 % 1023 hPa 0,0 l/m 17,2 km/h (3 Bft) N22.5 10 15 min 74,6 klux 0,00 min -1,5 C 7,8 C
09.04.2011 14:46 13,0 C 37 % 1023 hPa 0,0 l/m 19,7 km/h (3 Bft) N-NO22.5 20 14 min 73,9 klux 0,00 min -1,3 C 7,2 C
09.04.2011 15:02 13,4 C 38 % 1023 hPa 0,0 l/m 20,8 km/h (4 Bft) N-NO22.5 15 16 min 72,6 klux 0,00 min -0,6 C 7,5 C
09.04.2011 15:17 13,6 C 33 % 1023 hPa 0,0 l/m 24,7 km/h (4 Bft) N-NO22.5 30 15 min 71,3 klux 0,00 min -2,4 C 6,8 C
09.04.2011 15:32 13,7 C 35 % 1022 hPa 0,0 l/m 21,6 km/h (4 Bft) NO22.5 35 15 min 69,7 klux 0,00 min -1,5 C 7,6 C
09.04.2011 15:47 13,9 C 32 % 1022 hPa 0,0 l/m 19,6 km/h (3 Bft) N-NO45 25 15 min 67,8 klux 0,00 min -2,5 C 8,4 C
09.04.2011 16:02 13,9 C 34 % 1022 hPa 0,0 l/m 20,4 km/h (4 Bft) NO22.5 35 15 min 65,7 klux 0,00 min -1,7 C 8,2 C
09.04.2011 16:17 14,1 C 38 % 1022 hPa 0,0 l/m 19,1 km/h (3 Bft) N-NO22.5 25 15 min 62,9 klux 0,00 min 0,0 C 8,8 C
09.04.2011 16:31 14,2 C 39 % 1022 hPa 0,0 l/m 17,3 km/h (3 Bft) N-NO22.5 20 14 min 60,3 klux 0,00 min 0,5 C 9,5 C
09.04.2011 16:47 14,4 C 38 % 1022 hPa 0,0 l/m 15,1 km/h (3 Bft) N-NO67.5 15 16 min 58,0 klux 0,00 min 0,3 C 10,4 C
09.04.2011 17:02 14,2 C 40 % 1022 hPa 0,0 l/m 18,6 km/h (3 Bft) N-NO45 30 15 min 55,0 klux 0,00 min 0,8 C 9,1 C
09.04.2011 17:17 14,3 C 41 % 1022 hPa 0,0 l/m 19,6 km/h (3 Bft) N-NO22.5 30 0 min 51,9 klux 0,00 min 1,2 C 8,9 C
09.04.2011 17:32 14,4 C 40 % 1022 hPa 0,0 l/m 16,1 km/h (3 Bft) N-NO22.5 25 0 min 48,6 klux 0,00 min 1,0 C 10,1 C
09.04.2011 17:47 14,3 C 43 % 1022 hPa 0,0 l/m 17,4 km/h (3 Bft) N-NO22.5 30 0 min 45,8 klux 0,00 min 1,9 C 9,6 C
09.04.2011 18:02 14,1 C 42 % 1022 hPa 0,0 l/m 21,7 km/h (4 Bft) NO45 35 0 min 41,9 klux 0,00 min 1,4 C 8,1 C
09.04.2011 18:17 13,8 C 42 % 1022 hPa 0,0 l/m 20,0 km/h (4 Bft) NO22.5 35 0 min 38,2 klux 0,00 min 1,1 C 8,2 C
09.04.2011 18:32 13,6 C 43 % 1021 hPa 0,0 l/m 19,5 km/h (3 Bft) NO22.5 35 0 min 34,9 klux 0,00 min 1,3 C 8,1 C
09.04.2011 18:47 13,2 C 43 % 1022 hPa 0,0 l/m 14,3 km/h (3 Bft) N-NO22.5 30 0 min 31,1 klux 0,00 min 0,9 C 9,3 C
09.04.2011 19:02 12,7 C 42 % 1021 hPa 0,0 l/m 18,7 km/h (3 Bft) N-NO67.5 30 0 min 26,7 klux 0,00 min 0,1 C 7,2 C
09.04.2011 19:17 12,2 C 41 % 1022 hPa 0,0 l/m 24,2 km/h (4 Bft) NO22.5 35 0 min 22,2 klux 0,00 min -0,7 C 5,0 C
09.04.2011 19:32 11,7 C 45 % 1021 hPa 0,0 l/m 29,9 km/h (5 Bft) NO22.5 35 0 min 18,2 klux 0,00 min 0,2 C 3,1 C
09.04.2011 19:46 11,4 C 47 % 1022 hPa 0,0 l/m 20,4 km/h (4 Bft) N-NO22.5 30 0 min 13,2 klux 0,00 min 0,5 C 5,0 C
09.04.2011 20:02 10,8 C 49 % 1021 hPa 0,0 l/m 22,6 km/h (4 Bft) N-NO22.5 30 0 min 7,57 klux 0,00 min 0,5 C 3,6 C
09.04.2011 20:17 9,9 C 52 % 1022 hPa 0,0 l/m 13,6 km/h (3 Bft) NO 35 0 min 2,11 klux 0,00 min 0,5 C 5,6 C
09.04.2011 20:32 9,3 C 55 % 1022 hPa 0,0 l/m 11,9 km/h (2 Bft) N-NO22.5 25 0 min 751 lux 0,00 min 0,7 C 5,8 C
09.04.2011 20:47 8,7 C 56 % 1022 hPa 0,0 l/m 9,3 km/h (2 Bft) N-NO 25 0 min 110 lux 0,00 min 0,4 C 6,6 C
09.04.2011 21:02 8,5 C 58 % 1022 hPa 0,0 l/m 11,7 km/h (2 Bft) N-NO 30 0 min 13 lux 0,00 min 0,7 C 4,9 C
09.04.2011 21:17 8,0 C 59 % 1021 hPa 0,0 l/m 11,1 km/h (2 Bft) N-NO 25 0 min 0 lux 0,00 min 0,5 C 4,7 C
09.04.2011 21:32 7,0 C 61 % 1022 hPa 0,0 l/m 7,2 km/h (2 Bft) N-NO 25 0 min 0 lux 0,00 min 0,0 C 6,3 C
09.04.2011 21:47 6,7 C 62 % 1022 hPa 0,0 l/m 6,8 km/h (2 Bft) N-NO 25 0 min 0 lux 0,00 min -0,1 C 6,4 C
09.04.2011 22:02 6,0 C 63 % 1022 hPa 0,0 l/m 0,0 km/h (0 Bft) N-NO 25 0 min 0 lux 0,00 min -0,5 C 6,0 C
09.04.2011 22:17 5,1 C 65 % 1022 hPa 0,0 l/m 0,0 km/h (0 Bft) N-NO 25 0 min 0 lux 0,00 min -0,9 C 5,1 C
09.04.2011 22:32 4,4 C 67 % 1022 hPa 0,0 l/m 0,0 km/h (0 Bft) N-NO 25 0 min 0 lux 0,00 min -1,2 C 4,4 C
09.04.2011 22:47 3,7 C 69 % 1022 hPa 0,0 l/m 0,0 km/h (0 Bft) N-NO 25 0 min 0 lux 0,00 min -1,4 C 3,7 C
09.04.2011 23:01 3,3 C 70 % 1022 hPa 0,0 l/m 0,0 km/h (0 Bft) N-NO 25 0 min 0 lux 0,00 min -1,6 C 3,3 C
09.04.2011 23:17 2,9 C 72 % 1022 hPa 0,0 l/m 0,0 km/h (0 Bft) N-NO 25 0 min 0 lux 0,00 min -1,6 C 2,9 C
09.04.2011 23:32 2,6 C 74 % 1022 hPa 0,0 l/m 0,0 km/h (0 Bft) N-NO 25 0 min 0 lux 0,00 min -1,6 C 2,6 C
09.04.2011 23:47 2,7 C 75 % 1022 hPa 0,0 l/m 0,0 km/h (0 Bft) N-NO 25 0 min 0 lux 0,00 min -1,3 C 2,7 C
09.04.2011 23:56 2,5 C 74 % 1022 hPa 0,0 l/m 0,0 km/h (0 Bft) N-NO 25 0 min 0 lux 0,00 min -1,7 C 2,5 C
_ Min-Zeit 23:56 15:47 05:01 - 22:02 - - - - - 13:02 09:17
Minimum _ 2,5 C 32 % 1021 hPa - 0,0 km/h (0 Bft) - - - - - -3,6 C -3,7 C
_ Max-Zeit 16:47 08:02 00:02 00:02 19:32 - - 11:47 13:47 00:02 00:02 16:47
Maximum _ 14,4 C 93 % 1023 hPa 0,0 l/m 29,9 km/h
NO (5 Bft)
- - 16 min 76,4 klux 0,00 min 4,6 C 10,4 C
Durchschnitt _ 8,1 C 66 % 1022 hPa #0,0 l/m 13,7 km/h (3 Bft) N-NO - #6:45 h 27,1 klux #0 min. 1,2 C 4,0 C